TimeEST,TemperatureF,Dew PointF,Humidity,Sea Level PressureIn,VisibilityMPH,Wind Direction,Wind SpeedMPH,Gust SpeedMPH,PrecipitationIn,Events,Conditions,WindDirDegrees,DateUTC
12:15 AM,33.8,19.4,56,30.01,10.0,NW,3.5,-,N/A,,Clear,310,2013-02-04 05:15:00
12:35 AM,30.2,19.4,64,30.00,10.0,WNW,3.5,-,N/A,,Clear,290,2013-02-04 05:35:00
12:55 AM,32.0,19.4,60,30.01,10.0,Calm,Calm,-,N/A,,Clear,0,2013-02-04 05:55:00
1:15 AM,30.2,19.4,64,30.00,10.0,Calm,Calm,-,N/A,,Clear,0,2013-02-04 06:15:00
1:35 AM,28.4,21.2,74,30.01,10.0,Calm,Calm,-,N/A,,Clear,0,2013-02-04 06:35:00
1:55 AM,28.4,19.4,69,30.01,10.0,West,3.5,-,N/A,,Clear,260,2013-02-04 06:55:00
2:15 AM,30.2,19.4,64,30.02,10.0,Calm,Calm,-,N/A,,Clear,0,2013-02-04 07:15:00
2:35 AM,28.4,17.6,64,30.02,10.0,Calm,Calm,-,N/A,,Clear,0,2013-02-04 07:35:00
2:55 AM,28.4,19.4,69,30.02,10.0,Calm,Calm,-,N/A,,Clear,0,2013-02-04 07:55:00
3:15 AM,26.6,19.4,74,30.03,10.0,West,3.5,-,N/A,,Clear,270,2013-02-04 08:15:00
3:35 AM,26.6,19.4,74,30.04,10.0,Calm,Calm,-,N/A,,Clear,0,2013-02-04 08:35:00
3:55 AM,26.6,17.6,69,30.03,10.0,West,3.5,-,N/A,,Clear,280,2013-02-04 08:55:00
4:15 AM,26.6,17.6,69,30.04,10.0,Calm,Calm,-,N/A,,Clear,0,2013-02-04 09:15:00
5:55 AM,24.8,17.6,74,30.06,10.0,Calm,Calm,-,N/A,,Clear,0,2013-02-04 10:55:00
6:15 AM,24.8,17.6,74,30.06,10.0,Calm,Calm,-,N/A,,Clear,0,2013-02-04 11:15:00
6:35 AM,23.0,17.6,80,30.07,10.0,Calm,Calm,-,N/A,,Clear,0,2013-02-04 11:35:00
6:55 AM,23.0,19.4,86,30.08,10.0,Calm,Calm,-,N/A,,Clear,0,2013-02-04 11:55:00
7:15 AM,21.2,17.6,86,30.09,10.0,Calm,Calm,-,N/A,,Clear,0,2013-02-04 12:15:00
7:55 AM,26.6,21.2,80,30.10,10.0,Calm,Calm,-,N/A,,Clear,0,2013-02-04 12:55:00
8:15 AM,30.2,23.0,75,30.12,10.0,Calm,Calm,-,N/A,,Clear,0,2013-02-04 13:15:00
8:35 AM,30.2,23.0,75,30.13,10.0,Calm,Calm,-,N/A,,Clear,0,2013-02-04 13:35:00
8:55 AM,33.8,24.8,70,30.14,10.0,Calm,Calm,-,N/A,,Clear,0,2013-02-04 13:55:00
9:15 AM,35.6,24.8,65,30.14,10.0,Calm,Calm,-,N/A,,Clear,0,2013-02-04 14:15:00
9:35 AM,35.6,21.2,56,30.15,10.0,Calm,Calm,-,N/A,,Clear,0,2013-02-04 14:35:00
9:55 AM,37.4,21.2,52,30.15,10.0,Calm,Calm,-,N/A,,Clear,0,2013-02-04 14:55:00
10:15 AM,37.4,21.2,52,30.16,10.0,Calm,Calm,-,N/A,,Clear,0,2013-02-04 15:15:00
10:35 AM,39.2,21.2,49,30.15,10.0,Calm,Calm,-,N/A,,Clear,0,2013-02-04 15:35:00
10:55 AM,39.2,19.4,45,30.14,10.0,Calm,Calm,-,N/A,,Clear,0,2013-02-04 15:55:00
11:15 AM,41.0,19.4,42,30.14,10.0,Calm,Calm,-,N/A,,Clear,0,2013-02-04 16:15:00
11:35 AM,42.8,19.4,39,30.15,10.0,Calm,Calm,-,N/A,,Clear,0,2013-02-04 16:35:00
11:55 AM,42.8,19.4,39,30.14,10.0,Calm,Calm,-,N/A,,Clear,0,2013-02-04 16:55:00
12:15 PM,44.6,17.6,34,30.13,10.0,Calm,Calm,-,N/A,,Clear,0,2013-02-04 17:15:00
12:35 PM,46.4,17.6,32,30.12,10.0,Calm,Calm,-,N/A,,Clear,0,2013-02-04 17:35:00
12:55 PM,46.4,19.4,34,30.11,10.0,SSW,5.8,-,N/A,,Clear,210,2013-02-04 17:55:00
1:15 PM,46.4,17.6,32,30.08,10.0,SE,3.5,-,N/A,,Clear,130,2013-02-04 18:15:00
1:35 PM,46.4,17.6,32,30.07,10.0,SSW,4.6,-,N/A,,Partly Cloudy,200,2013-02-04 18:35:00
1:55 PM,48.2,19.4,32,30.08,10.0,SSW,4.6,-,N/A,,Clear,210,2013-02-04 18:55:00
2:15 PM,50.0,21.2,32,30.07,10.0,SSW,10.4,-,N/A,,Clear,200,2013-02-04 19:15:00
2:35 PM,50.0,19.4,30,30.06,10.0,SSW,10.4,-,N/A,,Clear,210,2013-02-04 19:35:00
2:55 PM,50.0,19.4,30,30.05,10.0,SW,6.9,-,N/A,,Clear,230,2013-02-04 19:55:00
3:15 PM,50.0,19.4,30,30.06,9.0,WSW,5.8,-,N/A,,Clear,240,2013-02-04 20:15:00
3:35 PM,48.2,21.2,34,30.06,10.0,SSW,6.9,-,N/A,,Clear,200,2013-02-04 20:35:00
3:55 PM,50.0,21.2,32,30.05,10.0,WSW,4.6,-,N/A,,Clear,240,2013-02-04 20:55:00
4:15 PM,48.2,21.2,34,30.05,10.0,SSW,8.1,-,N/A,,Clear,210,2013-02-04 21:15:00
4:35 PM,48.2,21.2,34,30.04,10.0,SSW,4.6,-,N/A,,Scattered Clouds,210,2013-02-04 21:35:00
4:55 PM,48.2,21.2,34,30.04,10.0,South,4.6,-,N/A,,Partly Cloudy,180,2013-02-04 21:55:00
5:15 PM,48.2,21.2,34,30.04,10.0,SSW,5.8,-,N/A,,Clear,200,2013-02-04 22:15:00
5:35 PM,46.4,21.2,37,30.04,10.0,SSW,4.6,-,N/A,,Scattered Clouds,210,2013-02-04 22:35:00
5:55 PM,46.4,21.2,37,30.04,10.0,SSW,8.1,-,N/A,,Scattered Clouds,200,2013-02-04 22:55:00
6:15 PM,46.4,21.2,37,30.04,10.0,SSW,8.1,-,N/A,,Clear,200,2013-02-04 23:15:00
6:35 PM,46.4,21.2,37,30.05,10.0,SSW,5.8,-,N/A,,Mostly Cloudy,200,2013-02-04 23:35:00
6:55 PM,44.6,23.0,43,30.04,10.0,SSW,6.9,-,N/A,,Overcast,200,2013-02-04 23:55:00
7:15 PM,44.6,23.0,43,30.04,10.0,SSW,5.8,-,N/A,,Mostly Cloudy,200,2013-02-05 00:15:00
7:35 PM,44.6,23.0,43,30.04,10.0,SSW,6.9,-,N/A,,Partly Cloudy,200,2013-02-05 00:35:00
7:55 PM,44.6,24.8,46,30.05,10.0,SW,4.6,-,N/A,,Clear,220,2013-02-05 00:55:00
8:15 PM,42.8,24.8,49,30.05,10.0,SW,4.6,-,N/A,,Clear,220,2013-02-05 01:15:00
8:35 PM,42.8,24.8,49,30.04,10.0,Calm,Calm,-,N/A,,Clear,0,2013-02-05 01:35:00
8:55 PM,42.8,24.8,49,30.04,10.0,Calm,Calm,-,N/A,,Clear,0,2013-02-05 01:55:00
9:15 PM,41.0,24.8,53,30.04,10.0,Calm,Calm,-,N/A,,Clear,0,2013-02-05 02:15:00
9:55 PM,37.4,24.8,60,30.04,10.0,Calm,Calm,-,N/A,,Clear,0,2013-02-05 02:55:00
10:15 PM,37.4,24.8,60,30.04,10.0,SSW,4.6,-,N/A,,Clear,210,2013-02-05 03:15:00
10:35 PM,39.2,24.8,56,30.04,10.0,SSW,6.9,-,N/A,,Clear,210,2013-02-05 03:35:00
10:55 PM,39.2,26.6,61,30.04,10.0,SW,10.4,-,N/A,,Clear,230,2013-02-05 03:55:00
11:15 PM,41.0,26.6,57,30.04,10.0,SW,10.4,-,N/A,,Clear,220,2013-02-05 04:15:00
11:35 PM,41.0,26.6,57,30.03,10.0,SW,9.2,-,N/A,,Clear,220,2013-02-05 04:35:00
11:55 PM,41.0,26.6,57,30.02,10.0,SW,9.2,-,N/A,,Clear,220,2013-02-05 04:55:00